Flag for U.S.A. Weather past 2 weeks in Toccoa, Georgia, U.S.A.

Now
59 °F

Clear.


Feels Like: 60 °F
Forecast: 58 / 82 °F
Wind: 3 mph from Northeast

Location: Clemson-Oconee County Airport

Current Time: May 24, 2015 at 6:06:14 AM

Latest Report: May 24, 2015 at 4:54 AM


Visibility: 10 mi

Pressure: 30.36 "Hg

Humidity: 72%

Dew point: 50 °F

Location of ToccoaLocation

Historic Weather in Toccoa — Graph

°F

Toccoa temperature yesterday

Maximum temperature yesterday: 82 °F (at 2:54 PM)
Minimum temperature yesterday: 58 °F (at 6:54 AM)
Average temperature yesterday: 71 °F

Past Weeks' High & Low Weather Summary

 TemperatureHumidityPressure
High91 °F (May 11, 3:54 PM)87% (May 11, 6:54 AM)30.42 "Hg (May 11, 6:54 AM)
Low57 °F (May 22, 5:54 AM)18% (May 12, 6:54 PM)29.80 "Hg (May 21, 5:54 AM)
Average75 °F56%30.13 "Hg
* Reported May 9 4:54 AM — May 24 4:54 AM, Toccoa, Weather by CustomWeather, © 2015

Note: Actual official high and low records may vary slightly from our data, if they occured in-between our weather recording intervals... More about our weather records

Advertising

Toccoa weather history for previous 24 hours

 ConditionsComfort  
Time TempWeatherWind HumidityBarometerVisibility
4:54 AM
Sun, May 24
59 °FClear.3 mph72%30.36 "Hg10 mi
3:54 AM59 °FClear.3 mph69%30.34 "Hg10 mi
2:54 AM60 °FClear.No wind75%30.34 "Hg10 mi
1:54 AM63 °FClear.No wind63%30.33 "Hg10 mi
12:54 AM65 °FClear.No wind51%30.33 "Hg10 mi
11:54 PM
Sat, May 23
67 °FClear.No wind53%30.33 "Hg10 mi
10:54 PM68 °FClear.No wind49%30.34 "Hg10 mi
9:54 PM72 °FClear.No wind43%30.32 "Hg10 mi
8:54 PM74 °FSunny.No wind33%30.31 "Hg10 mi
7:54 PM78 °FSunny.No wind30%30.31 "Hg10 mi
6:54 PM81 °FSunny.6 mph25%30.31 "Hg10 mi
5:54 PM82 °FSunny.7 mph23%30.32 "Hg10 mi
4:54 PM82 °FSunny.7 mph23%30.33 "Hg10 mi
3:54 PM81 °FSunny.No wind23%30.36 "Hg10 mi
2:54 PM82 °FSunny.9 mph25%30.37 "Hg10 mi
1:54 PM80 °FSunny.3 mph25%30.38 "Hg10 mi
12:54 PM78 °FSunny.5 mph28%30.40 "Hg10 mi
11:54 AM76 °FSunny.5 mph32%30.41 "Hg10 mi
10:54 AM74 °FSunny.8 mph37%30.42 "Hg10 mi
9:54 AM70 °FSunny.No wind41%30.42 "Hg10 mi
8:54 AM67 °FSunny.5 mph49%30.40 "Hg10 mi
7:54 AM62 °FSunny.No wind50%30.38 "Hg10 mi
6:54 AM58 °FClear.5 mph58%30.35 "Hg10 mi
Weather by CustomWeather, © 2015

See weather overviewHow to use our weather pages